Find Starlink 32401

NORAD ID: 61865 Int'l Des: 2024-202 Owner: SPXS Country: US Constellation: starlink operational
LEOCIRCULAR

实时位置

正在加载3D地球...

关于 Starlink 32401

正在加载描述...

即将过境

Passes for default location (London). Set your location on the main map for personalized predictions.

高度历史

Loading altitude history...

两行轨道根数

1 61865U 24202W 26126.42648222 -.00007917 00000-0 -27873-3 0 9999
2 61865 43.0020 272.2724 0002794 281.2008 78.8529 15.27543972 84169
Epoch: May 6, 2026 • Age: 14 hours

当前状态

高度 486.5 km
速度 7.62 km/s
星下点 -20.95°S, 16.69°E
发射日期 Nov 7, 2024
运行时间 1.4 years
类型 internet

技术详情

分类 Payload
质量 730.00 kg
干质量 700.00 kg
总质量 730.00 kg
长度 0.30 m
直径 4.10 m
跨度 29.00 m
形状 Box + pan
制造商 SPXS
平台类型 Starlink V2M
阶段状态 In Orbit
所有者/国家 SPXS/US

Most Searched